Weather Roundup
Issued by NWS Springfield, MO

Home | Current Version | Previous Version | Text Only | Print | Product List | Glossary On
Versions: 1 2 3 4 5 6 7 8 9 10 11 12 13 14 15 16 17 18 19 20 21 22 23 24 25 26 27 28 29 30 31 32 33 34 35 36 37 38 39 40 41 42 43 44 45 46 47 48 49 50
000
NZUS99 KSGF 250707
HRRSGF

HOURLY WEATHER
NATIONAL WEATHER SERVICE SPRINGFIELD MO
200 AM CDT FRI JUL 25 2014

......SGF CWA......

CITY           SKY/WX    TMP DP  RH WIND       PRES   REMARKS
SPRINGFIELD    CLEAR     68  58  70 S9        30.03F
JOPLIN         CLEAR     71  61  70 S8        30.00F
WEST PLAINS    CLEAR     63  55  75 S3        30.07S
ROLLA          CLEAR     63  54  72 SE8       30.03S
OSAGE BEACH    CLEAR     64  54  68 CALM      30.02S
BRANSON        PTCLDY    68  57  68 SE7       30.06R

......SURROUNDING SGF CWA......

CITY           SKY/WX    TMP DP  RH WIND       PRES   REMARKS
CHANUTE        PTCLDY    71  68  90 S8        29.97F
PARSONS        MOCLDY    73  69  87 CALM      30.00F
COFFEYVILLE    MOCLDY    74  71  91 SE7       29.99S
EMPORIA        PTCLDY    74  68  81 S15       29.95F
GROVE OK       PTCLDY    72  72 100 S6        30.01F
ROGERS AR      CLEAR     70  66  87 S8        30.04F
SILOAM SPRINGS CLEAR     70  63  78 SE5       30.06R
HARRISON AR    CLEAR     66  62  87 E7        30.06F
NEAR YELLVILLE CLEAR     63  61  94 CALM      30.05R

......KANSAS AND MISSOURI......

CITY           SKY/WX    TMP DP  RH WIND       PRES   REMARKS
KANSAS CTY INT PTCLDY    71  58  63 S13       29.94F
DOWNTOWN KC    PTCLDY    74  58  57 S10       29.94F
COLUMBIA       CLEAR     63  55  75 SE7       30.02S
SEDALIA        CLEAR     64  56  75 SE8       29.99F
ST JOSEPH      MOCLDY    69  61  75 S9        29.90F
ST LOUIS       PTCLDY    67  55  65 E3        30.05R
SPIRIT OF STL  CLEAR     58  54  86 CALM      30.03R
KIRKSVILLE     CLEAR     63  56  78 SE12      29.99F
WICHITA        PTCLDY    78  71  79 S14       29.95S
TOPEKA         MOCLDY    75  60  59 SE7       29.93F
OLATHE         PTCLDY    68  59  73 S8        29.95F

......TENNESSEE......

CITY           SKY/WX    TMP DP  RH WIND       PRES   REMARKS
MEMPHIS        PTCLDY    69  61  75 CALM      30.03S
NASHVILLE      CLEAR     67  58  72 NE5       30.03F

......ARKANSAS.......

CITY           SKY/WX    TMP DP  RH WIND       PRES   REMARKS
FAYETTEVILLE   CLEAR     64  64 100 CALM      30.06R
FT SMITH       CLOUDY    74  71  91 E3        30.02S
LITTLE ROCK    CLEAR     69  63  81 CALM      30.04F

......OKLAHOMA.......

CITY           SKY/WX    TMP DP  RH WIND       PRES   REMARKS
TULSA          MOCLDY    77  71  82 SE12      30.00R
PONCA CITY     CLEAR     78  71  79 S12       29.97R
MCALESTER      PTCLDY    76  71  85 S3        30.02S
OKLAHOMA CITY  PTCLDY    74  68  81 S6        30.00S

......IOWA............

CITY           SKY/WX    TMP DP  RH WIND       PRES   REMARKS
DES MOINES     CLOUDY    68  59  73 SE13      29.89F
QUAD CITIES    CLEAR     61  55  81 S6        30.04S

......ILLINOIS........

CITY           SKY/WX    TMP DP  RH WIND       PRES   REMARKS
QUINCY         CLEAR     62  54  74 SE8       30.03F
CHICAGO        PTCLDY    59  48  67 SW3       30.07R



USA.gov is the U.S. government's official web portal to all federal, state and local government web resources and services.